This is the latest recevied weather packets stored in our database for station/object F8KHU-13. If no packets are shown the sender has not sent any weather packets the latest 1 day(s).
| Time | Temp. | Humidity | Pressure | Rain* | Wind** | Luminosity | Snow |
|---|---|---|---|---|---|---|---|
| 1778008215 | 11.67° C | 34% | 1010.1 hPa | 0 mm | 0 m/s | 0 W/m² | - |
| 1778008195 | 11.67° C | 34% | 1010.1 hPa | 0 mm | 0 m/s | 0 W/m² | - |
| 1778007335 | 11.67° C | 34% | 1010.1 hPa | 0 mm | 0.45 m/s, 140° | 0 W/m² | - |
| 1778007315 | 11.67° C | 34% | 1010.1 hPa | 0 mm | 0 m/s | 0 W/m² | - |
| 1778007296 | 11.67° C | 34% | 1010 hPa | 0 mm | 1.79 m/s, 139° | 0 W/m² | - |
| 1778006436 | 11.67° C | 34% | 1010.1 hPa | 0 mm | 0.45 m/s, 138° | 0 W/m² | - |
| 1778006416 | 11.67° C | 34% | 1010 hPa | 0 mm | 0 m/s | 0 W/m² | - |
| 1778006396 | 11.67° C | 34% | 1010 hPa | 0 mm | 0.45 m/s, 141° | 0 W/m² | - |
| 1778005536 | 12.22° C | 34% | 1010 hPa | 0 mm | 0.89 m/s, 141° | 0 W/m² | - |
| 1778005516 | 12.22° C | 34% | 1010 hPa | 0 mm | 0.45 m/s, 141° | 0 W/m² | - |
| 1778005496 | 12.22° C | 34% | 1010 hPa | 0 mm | 0.45 m/s, 140° | 0 W/m² | - |
| 1778004636 | 12.22° C | 34% | 1010 hPa | 0 mm | 0.45 m/s, 136° | 0 W/m² | - |
| 1778004616 | 12.22° C | 34% | 1010.1 hPa | 0 mm | 0.45 m/s, 134° | 0 W/m² | - |
| 1778004596 | 12.22° C | 34% | 1010.1 hPa | 0 mm | 1.79 m/s, 135° | 0 W/m² | - |
| 1778003736 | 12.22° C | 34% | 1010 hPa | 0 mm | 0.45 m/s, 127° | 0 W/m² | - |
| 1778003716 | 12.22° C | 34% | 1010.1 hPa | 0 mm | 0.89 m/s, 125° | 0 W/m² | - |
| 1778003696 | 12.22° C | 34% | 1009.9 hPa | 0 mm | 1.34 m/s, 124° | 0 W/m² | - |
| 1778002836 | 12.22° C | 34% | 1010 hPa | 0 mm | 0.45 m/s, 138° | 0 W/m² | - |
| 1778002816 | 12.22° C | 34% | 1010 hPa | 0 mm | 1.79 m/s, 140° | 0 W/m² | - |
| 1778002796 | 12.22° C | 34% | 1010 hPa | 0 mm | 0.45 m/s, 141° | 0 W/m² | - |
| 1778001936 | 12.22° C | 34% | 1010.1 hPa | 0.51 mm | 0.45 m/s, 144° | 0 W/m² | - |
| 1778001916 | 12.22° C | 34% | 1010.1 hPa | 0.51 mm | 0 m/s | 0 W/m² | - |
| 1778001896 | 12.22° C | 34% | 1010.1 hPa | 0.51 mm | 0.45 m/s, 144° | 0 W/m² | - |
| 1778001036 | 12.22° C | 34% | 1010 hPa | 0.51 mm | 0.89 m/s, 137° | 0 W/m² | - |
| 1778001016 | 12.22° C | 34% | 1010 hPa | 0.51 mm | 0 m/s | 0 W/m² | - |
* Rain latest hour (hover to see other rain measurements)
** Current wind speed in m/s (hover to see current wind gust speed)